Regional Weather Roundup
Issued by NWS

Home | Current Version | Previous Version | Text Only | Print | Product List | Glossary On
Versions: 1 2 3 4 5 6 7 8 9 10 11 12 13 14 15 16 17 18 19 20 21 22 23 24 25 26 27 28 29 30 31 32 33 34 35 36 37 38 39 40 41 42 43 44 45 46 47 48 49 50
000
ASUS44 KMEG 211310
RWRTN
TENNESSEE HOURLY STATE WEATHER ROUNDUP
NATIONAL WEATHER SERVICE MEMPHIS TN
800 AM CDT SUN SEP 21 2014

TNZ002-004-019-021-049-052-054-088>092-211400-
WEST TENNESSEE

CITY           SKY/WX    TMP DP  RH WIND       PRES   REMARKS
MEMPHIS INTL   MOSUNNY   74  67  78 CALM      30.03R
NWS MEMPHIS      N/A     71 N/A N/A MISG        N/A
JACKSON        SUNNY     71  66  84 SW7       30.02R
DYERSBURG      SUNNY     72  61  68 W9        30.00S
UNION CITY     SUNNY     70  66  88 SW7       29.98R
PARIS          SUNNY     70  64  83 SW6       29.99R
HUNTINGDON     SUNNY     70  66  86 SW6       29.99S
LEXINGTON      SUNNY     66  64  94 S3        30.01R
SAVANNAH       SUNNY     70  70 100 CALM      30.03R
$$

TNZ008-025-027-028-033-062-065-066-211400-
NORTH MIDDLE TENNESSEE

CITY           SKY/WX    TMP DP  RH WIND       PRES   REMARKS
NASHVILLE      PTSUNNY   71  67  87 SW6       29.99S
DICKSON        MOSUNNY   68  64  88 SW8       30.00S
PORTLAND       PTSUNNY   72  64  78 SW8       29.96F
CLARKSVILLE    PTSUNNY   72  66  81 W7        29.97R
LEBANON        MOSUNNY   70  64  81 SW5       29.96F
SMYRNA         MOSUNNY   69  65  87 S3        30.00S
MURFREESBORO   MOSUNNY   69  63  81 SW5       30.00R
COOKEVILLE     PTSUNNY   66  64  94 S5        30.01S
LIVINGSTON     MOSUNNY   66  62  87 SW9       30.00
GALLATIN       MOSUNNY   66  66 100 CALM      29.99S
CROSSVILLE     SUNNY     67  60  78 SW3       30.05S
$$

TNZ061-075-076-078-094-096-097-211400-
SOUTH MIDDLE TENNESSEE

CITY           SKY/WX    TMP DP  RH WIND       PRES   REMARKS
LEWISBURG      MOSUNNY   72  64  75 SW7       30.01S
FAYETTEVILLE   SUNNY     66  63  88 S6        30.05S
WINCHESTER     SUNNY     66  63  88 CALM      30.05S
MCMINNVILLE    SUNNY     66  66 100 SW3       30.03S
COLUMBIA       SUNNY     72  72 100 SW7       30.00S
SHELBYVILLE    SUNNY     70  66  88 S5        30.03S
$$

TNZ017-018-042-046-047-211400-
NORTHEAST TENNESSEE

CITY           SKY/WX    TMP DP  RH WIND       PRES   REMARKS
TRI CITIES     MOSUNNY   61  57  87 CALM      30.03R
ELIZABETHTON   CLOUDY    57  55  94 E3        30.04S
$$

TNZ012-013-036-069-073-074-211400-
CENTRAL EAST TENNESSEE

CITY           SKY/WX    TMP DP  RH WIND       PRES   REMARKS
KNOXVILLE      MOSUNNY   68  61  78 SW6       30.01S
OAK RIDGE      MOSUNNY   67  63  87 VRB5      30.03S
GATLINBURG     MOSUNNY   63  59  88 CALM      30.02R
MORRISTOWN     SUNNY     70  63  78 SW6       30.03R
$$

TNZ083-085-099-211400-
SOUTHEAST TENNESSEE

CITY           SKY/WX    TMP DP  RH WIND       PRES   REMARKS
CHATTANOOGA    SUNNY     66  60  81 CALM      30.04R
$$

SKY/WX REPORTED AS FAIR MEANS FEW OR NO CLOUDS BELOW
12 THOUSAND FEET.



USA.gov is the U.S. government's official web portal to all federal, state and local government web resources and services.